Aérodrome :
LOGIN :

S'inscrire | Disclaimer

   EN    FR    IT 

 










Légende :    VFR   VFR Marginal   IFR   IFR Intensif   IFR Très Intensif
Visi : 
Plafond : 
>= 8 km
>= 3000ft
5 à 8 km
1000 à 3000 ft
1500m à 5 km
500 à 1000 ft
800 à 1500m
200 à 500 ft
< 800m
< 200 ft
Symboles :   Orages  Brouillard  Fortes neiges  Fortes précipitations  Vent > 20 kt
SIGMETs :   Divers  Orages  Givrage  Turbulence  Onde Orograph.  Cendres Volcan.







- Altitude de l'aérodrome : 59 ft
- Code IATA : TSF


LIPH - Treviso

DERNIER METAR :
  • 211920Z 13004KT CAVOK 27/20 Q1011

METARs EXPIRÉS :
  • 211850Z 14005KT CAVOK 27/19 Q1011
  • 211820Z 14005KT 120V180 CAVOK 27/19 Q1010
  • 211750Z 13004KT CAVOK 27/19 Q1010
  • 211720Z 15004KT 120V190 CAVOK 28/19 Q1011
  • 211650Z 14006KT CAVOK 28/19 Q1011
  • 211620Z 15005KT 100V180 CAVOK 29/19 Q1011

TAF TAF LIPH
Valide du 21 à 18h jusqu'au 22 à 18h UTC


211700Z 2118/2218 VRB05KT CAVOK
TEMPO 2122/2212 TSRA
Pas de NOTAMs connus pour ce terrain.



MET'MAP, la Météo Aéronautique d'un coup d'oeil ! - Copyright ORBIFLY Décembre 2007 - Disclaimer

ORBIFLY MET'MAP TEAM :

Programmation & Développement : Alexandra Zaïnal
Conception & Développement : Baudouin d'Aumeries
Co-Programmation & Développement : Marc-Olivier Méhu
Soutien technique & logistique : Manuel Goepfert

Contact : metmap@orbifly.com




SOURCES & CREDITS :

   NOAA